| time (UTC) | temp F | wind direction | speed MPH | gust MPH | rain 1hr in | rain 24hr in | rain mn in | humidity % | barometer mb |
| 20260505222523 | 62 | 268 | 12.0 | 15.0 | 0.00 | 0.00 | 0.00 | 50 | 1011.8 |
| 20260505222019 | 63 | 264 | 9.0 | 14.0 | 0.00 | 0.00 | 0.00 | 48 | 1012.1 |
| 20260505221517 | 63 | 248 | 11.0 | 13.0 | 0.00 | 0.00 | 0.00 | 50 | 1011.9 |
| 20260505221014 | 63 | 232 | 14.0 | 18.0 | 0.00 | 0.00 | 0.00 | 49 | 1011.9 |
| 20260505220511 | 62 | 257 | 10.0 | 11.0 | 0.00 | 0.00 | 0.00 | 50 | 1012.1 |
| 20260505220009 | 62 | 259 | 12.0 | 14.0 | 0.00 | 0.00 | 0.00 | 50 | 1012.1 |
| 20260505215506 | 63 | 248 | 13.0 | 17.0 | 0.00 | 0.00 | 0.00 | 50 | 1012.0 |
| 20260505215003 | 63 | 262 | 14.0 | 15.0 | 0.00 | 0.00 | 0.00 | 49 | 1011.9 |
| 20260505214502 | 64 | 272 | 15.0 | 18.0 | 0.00 | 0.00 | 0.00 | 46 | 1012.1 |
| 20260505213953 | 64 | 275 | 15.0 | 21.0 | 0.00 | 0.00 | 0.00 | 47 | 1012.0 |
| 20260505213451 | 62 | 219 | 14.0 | 20.0 | 0.00 | 0.00 | 0.00 | 51 | 1012.1 |
| 20260505212947 | 62 | 285 | 9.0 | 9.0 | 0.00 | 0.00 | 0.00 | 50 | 1012.2 |
| 20260505212443 | 62 | 247 | 18.0 | 21.0 | 0.00 | 0.00 | 0.00 | 50 | 1012.2 |
| 20260505211940 | 62 | 243 | 14.0 | 16.0 | 0.00 | 0.00 | 0.00 | 50 | 1012.0 |
| 20260505211438 | 62 | 265 | 10.0 | 10.0 | 0.00 | 0.00 | 0.00 | 51 | 1012.0 |
| 20260505210933 | 64 | 242 | 11.0 | 14.0 | 0.00 | 0.00 | 0.00 | 50 | 1012.1 |
| 20260505210431 | 62 | 244 | 15.0 | 16.0 | 0.00 | 0.00 | 0.00 | 52 | 1012.2 |
| 20260505205927 | 63 | 258 | 15.0 | 17.0 | 0.00 | 0.00 | 0.00 | 50 | 1012.2 |
| 20260505205426 | 62 | 232 | 17.0 | 21.0 | 0.00 | 0.00 | 0.00 | 51 | 1012.1 |
| 20260505204922 | 62 | 196 | 12.0 | 14.0 | 0.00 | 0.00 | 0.00 | 51 | 1012.1 |
| 20260505204420 | 62 | 236 | 9.0 | 13.0 | 0.00 | 0.00 | 0.00 | 51 | 1012.1 |
| 20260505203917 | 62 | 288 | 11.0 | 11.0 | 0.00 | 0.00 | 0.00 | 50 | 1012.5 |
| 20260505203414 | 61 | 256 | 14.0 | 15.0 | 0.00 | 0.00 | 0.00 | 51 | 1012.2 |
| 20260505202910 | 61 | 240 | 11.0 | 15.0 | 0.00 | 0.00 | 0.00 | 52 | 1012.5 |
| 20260505202406 | 62 | 253 | 13.0 | 16.0 | 0.00 | 0.00 | 0.00 | 53 | 1012.2 |
| 20260505201903 | 61 | 269 | 12.0 | 14.0 | 0.00 | 0.00 | 0.00 | 52 | 1012.4 |
| 20260505201400 | 61 | 272 | 8.0 | 10.0 | 0.00 | 0.00 | 0.00 | 50 | 1012.5 |
| 20260505200859 | 61 | 268 | 11.0 | 13.0 | 0.00 | 0.00 | 0.00 | 52 | 1012.1 |
| 20260505200355 | 60 | 287 | 2.0 | 3.0 | 0.00 | 0.00 | 0.00 | 51 | 1012.4 |
| 20260505195850 | 61 | 272 | 7.0 | 8.0 | 0.00 | 0.00 | 0.00 | 51 | 1012.5 |
| 20260505195348 | 60 | 246 | 12.0 | 14.0 | 0.00 | 0.00 | 0.00 | 53 | 1012.8 |
| 20260505194845 | 60 | 248 | 9.0 | 13.0 | 0.00 | 0.00 | 0.00 | 53 | 1012.5 |
| 20260505194343 | 59 | 211 | 12.0 | 14.0 | 0.00 | 0.00 | 0.00 | 55 | 1012.4 |
| 20260505193838 | 60 | 216 | 9.0 | 10.0 | 0.00 | 0.00 | 0.00 | 53 | 1012.5 |
| 20260505193336 | 60 | 239 | 7.0 | 8.0 | 0.00 | 0.00 | 0.00 | 50 | 1012.5 |
| 20260505192833 | 60 | 247 | 6.0 | 11.0 | 0.00 | 0.00 | 0.00 | 51 | 1012.7 |
| 20260505192332 | 60 | 242 | 8.0 | 10.0 | 0.00 | 0.00 | 0.00 | 52 | 1012.5 |
| 20260505191829 | 60 | 276 | 6.0 | 7.0 | 0.00 | 0.00 | 0.00 | 51 | 1012.5 |
| 20260505191327 | 60 | 288 | 9.0 | 11.0 | 0.00 | 0.00 | 0.00 | 51 | 1012.8 |
| 20260505190823 | 59 | 295 | 9.0 | 11.0 | 0.00 | 0.00 | 0.00 | 51 | 1012.8 |
| 20260505190319 | 59 | 286 | 8.0 | 9.0 | 0.00 | 0.00 | 0.00 | 52 | 1012.7 |
| 20260505185815 | 59 | 330 | 7.0 | 9.0 | 0.00 | 0.00 | 0.00 | 52 | 1012.5 |
| 20260505185312 | 60 | 290 | 7.0 | 9.0 | 0.00 | 0.00 | 0.00 | 53 | 1012.7 |
| 20260505184808 | 59 | 257 | 7.0 | 9.0 | 0.00 | 0.00 | 0.00 | 53 | 1012.8 |
| 20260505184305 | 60 | 283 | 8.0 | 14.0 | 0.00 | 0.00 | 0.00 | 52 | 1012.7 |
| 20260505183802 | 59 | 240 | 7.0 | 9.0 | 0.00 | 0.00 | 0.00 | 53 | 1012.5 |
| 20260505183259 | 59 | 283 | 10.0 | 11.0 | 0.00 | 0.00 | 0.00 | 53 | 1012.2 |
| 20260505182755 | 59 | 248 | 15.0 | 17.0 | 0.00 | 0.00 | 0.00 | 53 | 1012.4 |
| 20260505182252 | 59 | 240 | 11.0 | 15.0 | 0.00 | 0.00 | 0.00 | 54 | 1012.5 |
| 20260505181749 | 59 | 256 | 7.0 | 9.0 | 0.00 | 0.00 | 0.00 | 52 | 1012.6 |
| 20260505181246 | 58 | 323 | 13.0 | 15.0 | 0.00 | 0.00 | 0.00 | 55 | 1012.8 |
| 20260505180743 | 59 | 275 | 15.0 | 18.0 | 0.00 | 0.00 | 0.00 | 54 | 1012.5 |
| 20260505180239 | 58 | 293 | 10.0 | 13.0 | 0.00 | 0.00 | 0.00 | 55 | 1012.5 |
| 20260505175736 | 58 | 300 | 12.0 | 14.0 | 0.00 | 0.00 | 0.00 | 56 | 1012.4 |
| 20260505175232 | 58 | 276 | 9.0 | 11.0 | 0.00 | 0.00 | 0.00 | 55 | 1012.4 |
| 20260505174729 | 58 | 246 | 9.0 | 10.0 | 0.00 | 0.00 | 0.00 | 55 | 1012.6 |
| 20260505174226 | 58 | 314 | 12.0 | 15.0 | 0.00 | 0.00 | 0.00 | 55 | 1012.6 |
| 20260505173722 | 58 | 235 | 11.0 | 14.0 | 0.00 | 0.00 | 0.00 | 55 | 1012.4 |
| 20260505173219 | 58 | 284 | 10.0 | 11.0 | 0.00 | 0.00 | 0.00 | 55 | 1012.2 |
| 20260505172716 | 58 | 250 | 7.0 | 8.0 | 0.00 | 0.00 | 0.00 | 56 | 1012.2 |
| 20260505172213 | 57 | 274 | 11.0 | 13.0 | 0.00 | 0.00 | 0.00 | 56 | 1012.4 |
| 20260505171712 | 56 | 242 | 7.0 | 9.0 | 0.00 | 0.00 | 0.00 | 57 | 1012.2 |
| 20260505171210 | 58 | 317 | 11.0 | 14.0 | 0.00 | 0.00 | 0.00 | 56 | 1012.5 |
| 20260505170706 | 57 | 273 | 13.0 | 16.0 | 0.00 | 0.00 | 0.00 | 57 | 1012.4 |
| 20260505170203 | 56 | 281 | 8.0 | 10.0 | 0.00 | 0.00 | 0.00 | 58 | 1012.2 |
| 20260505165658 | 57 | 269 | 7.0 | 8.0 | 0.00 | 0.00 | 0.00 | 56 | 1012.2 |
| 20260505165154 | 56 | 261 | 7.0 | 8.0 | 0.00 | 0.00 | 0.00 | 58 | 1011.8 |
| 20260505164650 | 57 | 309 | 11.0 | 13.0 | 0.00 | 0.00 | 0.00 | 58 | 1012.2 |
| 20260505164147 | 58 | 335 | 9.0 | 10.0 | 0.00 | 0.00 | 0.00 | 55 | 1012.1 |
| 20260505163645 | 57 | 333 | 12.0 | 13.0 | 0.00 | 0.00 | 0.00 | 57 | 1012.1 |
| 20260505163143 | 57 | 243 | 11.0 | 13.0 | 0.00 | 0.00 | 0.00 | 58 | 1011.9 |
| 20260505162640 | 56 | 276 | 11.0 | 13.0 | 0.00 | 0.00 | 0.00 | 59 | 1012.4 |
| 20260505162138 | 56 | 300 | 7.0 | 8.0 | 0.00 | 0.00 | 0.00 | 59 | 1012.0 |
| 20260505161635 | 56 | 256 | 6.0 | 9.0 | 0.00 | 0.00 | 0.00 | 60 | 1011.9 |
| 20260505161132 | 55 | 204 | 10.0 | 11.0 | 0.00 | 0.00 | 0.00 | 60 | 1011.9 |
| 20260505160630 | 57 | 301 | 11.0 | 13.0 | 0.00 | 0.00 | 0.00 | 59 | 1011.9 |
| 20260505160127 | 56 | 272 | 6.0 | 9.0 | 0.00 | 0.00 | 0.00 | 60 | 1011.9 |
| 20260505153107 | 55 | 292 | 12.0 | 16.0 | 0.00 | 0.00 | 0.00 | 62 | 1011.7 |
| 20260505152603 | 54 | 262 | 10.0 | 11.0 | 0.00 | 0.00 | 0.00 | 64 | 1011.6 |
| 20260505152059 | 55 | 248 | 13.0 | 15.0 | 0.00 | 0.00 | 0.00 | 62 | 1011.7 |
| 20260505151554 | 54 | 289 | 7.0 | 9.0 | 0.00 | 0.00 | 0.00 | 64 | 1011.6 |
| 20260505151052 | 54 | 268 | 10.0 | 11.0 | 0.00 | 0.00 | 0.00 | 63 | 1011.6 |
| 20260505150548 | 54 | 246 | 8.0 | 11.0 | 0.00 | 0.00 | 0.00 | 63 | 1011.6 |
| 20260505140514 | 51 | 267 | 4.0 | 5.0 | 0.00 | 0.00 | 0.00 | 71 | 1011.5 |
| 20260505124926 | 50 | 212 | 5.0 | 6.0 | 0.00 | 0.00 | 0.00 | 70 | 1011.4 |
| 20260505124424 | 50 | 272 | 6.0 | 7.0 | 0.00 | 0.00 | 0.00 | 71 | 1011.3 |
| 20260505123919 | 50 | 266 | 8.0 | 9.0 | 0.00 | 0.00 | 0.00 | 71 | 1011.5 |
| 20260505123416 | 50 | 268 | 9.0 | 9.0 | 0.00 | 0.00 | 0.00 | 71 | 1011.3 |
| 20260505122912 | 50 | 262 | 7.0 | 8.0 | 0.00 | 0.00 | 0.00 | 71 | 1011.2 |
| 20260505122410 | 50 | 252 | 9.0 | 10.0 | 0.00 | 0.00 | 0.00 | 70 | 1011.1 |
| 20260505121906 | 51 | 260 | 12.0 | 17.0 | 0.00 | 0.00 | 0.00 | 70 | 1011.0 |
| 20260505121403 | 50 | 248 | 14.0 | 17.0 | 0.00 | 0.00 | 0.00 | 70 | 1011.1 |
| 20260505120859 | 50 | 254 | 6.0 | 7.0 | 0.00 | 0.00 | 0.00 | 71 | 1011.1 |
| 20260505120355 | 50 | 290 | 5.0 | 6.0 | 0.00 | 0.00 | 0.00 | 71 | 1011.2 |
| 20260505115854 | 50 | 269 | 10.0 | 13.0 | 0.00 | 0.00 | 0.00 | 71 | 1011.2 |
| 20260505115352 | 50 | 272 | 8.0 | 10.0 | 0.00 | 0.00 | 0.00 | 71 | 1011.5 |
| 20260505114850 | 50 | 276 | 9.0 | 13.0 | 0.00 | 0.00 | 0.00 | 71 | 1011.1 |
| 20260505114346 | 50 | 236 | 4.0 | 6.0 | 0.00 | 0.00 | 0.00 | 71 | 1011.3 |
| 20260505113842 | 50 | 275 | 3.0 | 5.0 | 0.00 | 0.00 | 0.00 | 70 | 1011.5 |
| 20260505113339 | 50 | 254 | 8.0 | 9.0 | 0.00 | 0.00 | 0.00 | 70 | 1011.4 |
| 20260505112834 | 50 | 238 | 9.0 | 9.0 | 0.00 | 0.00 | 0.00 | 70 | 1011.2 |
| 20260505112332 | 50 | 262 | 6.0 | 7.0 | 0.00 | 0.00 | 0.00 | 71 | 1011.2 |
| 20260505111827 | 50 | 279 | 5.0 | 7.0 | 0.00 | 0.00 | 0.00 | 71 | 1011.4 |
| 20260505111323 | 50 | 276 | 9.0 | 10.0 | 0.00 | 0.00 | 0.00 | 71 | 1011.3 |
| 20260505110819 | 50 | 254 | 9.0 | 11.0 | 0.00 | 0.00 | 0.00 | 71 | 1011.4 |
| 20260505110317 | 49 | 271 | 9.0 | 11.0 | 0.00 | 0.00 | 0.00 | 71 | 1011.5 |
| 20260505101751 | 49 | 252 | 12.0 | 14.0 | 0.00 | 0.00 | 0.00 | 74 | 1011.6 |
| 20260505101247 | 49 | 246 | 11.0 | 14.0 | 0.00 | 0.00 | 0.00 | 75 | 1011.7 |
| 20260505100743 | 48 | 246 | 9.0 | 10.0 | 0.00 | 0.00 | 0.00 | 75 | 1011.8 |
| 20260505100240 | 48 | 234 | 7.0 | 8.0 | 0.00 | 0.00 | 0.00 | 74 | 1011.8 |
| 20260505095736 | 49 | 254 | 7.0 | 8.0 | 0.00 | 0.00 | 0.00 | 74 | 1011.6 |
| 20260505095234 | 49 | 232 | 13.0 | 14.0 | 0.00 | 0.00 | 0.00 | 74 | 1011.7 |
| 20260505094729 | 49 | 241 | 10.0 | 13.0 | 0.00 | 0.00 | 0.00 | 73 | 1011.6 |
| 20260505094226 | 49 | 214 | 9.0 | 11.0 | 0.00 | 0.00 | 0.00 | 73 | 1011.7 |
| 20260505093722 | 49 | 250 | 14.0 | 17.0 | 0.00 | 0.00 | 0.00 | 71 | 1011.8 |
| 20260505093220 | 49 | 259 | 10.0 | 13.0 | 0.00 | 0.00 | 0.00 | 71 | 1011.7 |
| 20260505092716 | 49 | 232 | 12.0 | 16.0 | 0.00 | 0.00 | 0.00 | 70 | 1011.9 |
| 20260505092215 | 49 | 199 | 19.0 | 24.0 | 0.00 | 0.00 | 0.00 | 70 | 1011.9 |
| 20260505091712 | 50 | 233 | 14.0 | 17.0 | 0.00 | 0.00 | 0.00 | 71 | 1011.9 |
| 20260505091210 | 49 | 238 | 9.0 | 11.0 | 0.00 | 0.00 | 0.00 | 71 | 1011.9 |
| 20260505090707 | 50 | 234 | 14.0 | 16.0 | 0.00 | 0.00 | 0.00 | 71 | 1012.0 |
| 20260505090205 | 50 | 232 | 15.0 | 17.0 | 0.00 | 0.00 | 0.00 | 71 | 1011.9 |
| 20260505085702 | 50 | 259 | 17.0 | 23.0 | 0.00 | 0.00 | 0.00 | 72 | 1011.9 |
| 20260505085201 | 49 | 248 | 15.0 | 20.0 | 0.00 | 0.00 | 0.00 | 72 | 1012.1 |
| 20260505084658 | 50 | 289 | 14.0 | 16.0 | 0.00 | 0.00 | 0.00 | 72 | 1011.8 |
| 20260505084156 | 50 | 299 | 8.0 | 10.0 | 0.00 | 0.00 | 0.00 | 72 | 1012.1 |
| 20260505083653 | 50 | 237 | 14.0 | 20.0 | 0.00 | 0.00 | 0.00 | 71 | 1012.2 |
| 20260505083150 | 50 | 248 | 7.0 | 9.0 | 0.00 | 0.00 | 0.00 | 71 | 1012.4 |
| 20260505082646 | 50 | 229 | 12.0 | 15.0 | 0.00 | 0.00 | 0.00 | 72 | 1012.0 |
| 20260505082143 | 50 | 247 | 14.0 | 16.0 | 0.00 | 0.00 | 0.00 | 72 | 1012.2 |
| 20260505081638 | 50 | 226 | 11.0 | 13.0 | 0.00 | 0.00 | 0.00 | 73 | 1012.6 |
| 20260505081137 | 50 | 249 | 9.0 | 10.0 | 0.00 | 0.00 | 0.00 | 72 | 1012.4 |
| 20260505080633 | 50 | 226 | 11.0 | 13.0 | 0.00 | 0.00 | 0.00 | 72 | 1012.8 |
| 20260505080129 | 50 | 236 | 11.0 | 13.0 | 0.00 | 0.00 | 0.00 | 72 | 1012.5 |
| 20260505075625 | 50 | 255 | 14.0 | 16.0 | 0.00 | 0.00 | 0.00 | 72 | 1012.8 |
| 20260505075122 | 50 | 189 | 9.0 | 11.0 | 0.00 | 0.00 | 0.00 | 71 | 1012.7 |
| 20260505074619 | 50 | 242 | 12.0 | 17.0 | 0.00 | 0.00 | 0.00 | 71 | 1012.5 |
| 20260505074116 | 50 | 217 | 14.0 | 16.0 | 0.00 | 0.00 | 0.00 | 70 | 1012.5 |
| 20260505073614 | 50 | 248 | 11.0 | 13.0 | 0.00 | 0.00 | 0.00 | 71 | 1012.6 |
| 20260505073112 | 50 | 244 | 8.0 | 8.0 | 0.00 | 0.00 | 0.00 | 71 | 1012.6 |
| 20260505072607 | 50 | 250 | 15.0 | 18.0 | 0.00 | 0.00 | 0.00 | 72 | 1012.5 |
| 20260505072104 | 50 | 257 | 16.0 | 21.0 | 0.00 | 0.00 | 0.00 | 71 | 1012.6 |
| 20260505071559 | 50 | 248 | 9.0 | 14.0 | 0.00 | 0.00 | 0.00 | 71 | 1012.5 |
| 20260505071058 | 50 | 228 | 15.0 | 16.0 | 0.00 | 0.00 | 0.00 | 71 | 1012.8 |
| 20260505070554 | 50 | 237 | 17.0 | 21.0 | 0.00 | 0.00 | 0.00 | 71 | 1012.6 |
| 20260505070050 | 50 | 212 | 11.0 | 14.0 | 0.00 | 0.00 | 0.00 | 72 | 1012.6 |
| 20260505065546 | 50 | 213 | 12.0 | 13.0 | 0.00 | 0.00 | 0.00 | 73 | 1012.6 |
| 20260505065043 | 50 | 242 | 9.0 | 11.0 | 0.00 | 0.00 | 0.00 | 73 | 1012.5 |
| 20260505064540 | 50 | 245 | 11.0 | 11.0 | 0.00 | 0.00 | 0.00 | 73 | 1012.7 |
| 20260505064039 | 50 | 247 | 18.0 | 21.0 | 0.00 | 0.00 | 0.00 | 73 | 1012.5 |
| 20260505063536 | 50 | 245 | 16.0 | 18.0 | 0.00 | 0.00 | 0.00 | 73 | 1012.7 |
| 20260505063031 | 50 | 242 | 11.0 | 13.0 | 0.00 | 0.00 | 0.00 | 72 | 1012.6 |
| 20260505062528 | 50 | 250 | 15.0 | 17.0 | 0.00 | 0.00 | 0.00 | 73 | 1012.5 |
| 20260505062026 | 50 | 256 | 8.0 | 10.0 | 0.00 | 0.00 | 0.00 | 73 | 1012.8 |
| 20260505061523 | 50 | 243 | 12.0 | 14.0 | 0.00 | 0.00 | 0.00 | 74 | 1012.6 |
| 20260505061021 | 50 | 240 | 13.0 | 18.0 | 0.00 | 0.00 | 0.00 | 74 | 1012.6 |
| 20260505060518 | 50 | 226 | 12.0 | 14.0 | 0.00 | 0.00 | 0.00 | 74 | 1012.8 |
| 20260505060015 | 50 | 241 | 10.0 | 13.0 | 0.00 | 0.00 | 0.00 | 75 | 1012.9 |
| 20260505055510 | 50 | 251 | 13.0 | 15.0 | 0.00 | 0.00 | 0.00 | 75 | 1012.7 |
| 20260505055007 | 50 | 246 | 10.0 | 10.0 | 0.00 | 0.00 | 0.00 | 76 | 1012.9 |
| 20260505054504 | 50 | 237 | 14.0 | 17.0 | 0.00 | 0.00 | 0.00 | 76 | 1012.6 |
| 20260505054002 | 50 | 240 | 20.0 | 23.0 | 0.00 | 0.00 | 0.00 | 75 | 1012.6 |
| 20260505053459 | 51 | 214 | 13.0 | 17.0 | 0.00 | 0.00 | 0.00 | 75 | 1012.7 |
| 20260505052955 | 51 | 239 | 15.0 | 16.0 | 0.00 | 0.00 | 0.00 | 75 | 1012.7 |
| 20260505052453 | 51 | 234 | 15.0 | 17.0 | 0.00 | 0.00 | 0.00 | 75 | 1012.8 |
| 20260505051950 | 51 | 192 | 16.0 | 20.0 | 0.00 | 0.00 | 0.00 | 75 | 1012.6 |
| 20260505051447 | 51 | 234 | 15.0 | 17.0 | 0.00 | 0.00 | 0.00 | 74 | 1012.6 |
| 20260505050945 | 51 | 266 | 15.0 | 18.0 | 0.00 | 0.00 | 0.00 | 74 | 1012.7 |
| 20260505050443 | 51 | 230 | 17.0 | 18.0 | 0.00 | 0.00 | 0.00 | 74 | 1012.7 |
| 20260505041411 | 52 | 248 | 17.0 | 21.0 | 0.00 | 0.00 | 0.00 | 71 | 1012.2 |
| 20260505040908 | 52 | 252 | 15.0 | 20.0 | 0.00 | 0.00 | 0.00 | 71 | 1012.1 |
| 20260505040405 | 52 | 240 | 21.0 | 25.0 | 0.00 | 0.00 | 0.00 | 71 | 1012.2 |
| 20260505035902 | 52 | 234 | 21.0 | 26.0 | 0.00 | 0.00 | 0.00 | 70 | 1012.1 |
| 20260505035357 | 52 | 257 | 18.0 | 22.0 | 0.00 | 0.00 | 0.00 | 70 | 1012.2 |
| 20260505034855 | 52 | 231 | 17.0 | 21.0 | 0.00 | 0.00 | 0.00 | 70 | 1011.8 |
| 20260505034351 | 52 | 181 | 16.0 | 21.0 | 0.00 | 0.00 | 0.00 | 70 | 1012.1 |
| 20260505033849 | 53 | 225 | 18.0 | 23.0 | 0.00 | 0.00 | 0.00 | 70 | 1011.9 |
| 20260505033345 | 53 | 256 | 19.0 | 22.0 | 0.00 | 0.00 | 0.00 | 69 | 1011.9 |
| 20260505032844 | 53 | 221 | 16.0 | 20.0 | 0.00 | 0.00 | 0.00 | 69 | 1012.0 |
| 20260505032340 | 53 | 240 | 12.0 | 15.0 | 0.00 | 0.00 | 0.00 | 68 | 1011.9 |
| 20260505031837 | 53 | 218 | 19.0 | 22.0 | 0.00 | 0.00 | 0.00 | 69 | 1012.0 |
| 20260505031333 | 53 | 240 | 14.0 | 15.0 | 0.00 | 0.00 | 0.00 | 69 | 1012.1 |
| 20260505030831 | 53 | 259 | 13.0 | 16.0 | 0.00 | 0.00 | 0.00 | 68 | 1011.9 |
| 20260505030327 | 53 | 246 | 15.0 | 21.0 | 0.00 | 0.00 | 0.00 | 68 | 1012.0 |
| 20260505025822 | 54 | 231 | 9.0 | 11.0 | 0.00 | 0.00 | 0.00 | 68 | 1011.9 |
| 20260505025320 | 54 | 232 | 8.0 | 9.0 | 0.00 | 0.00 | 0.00 | 68 | 1011.7 |
| 20260505024818 | 54 | 227 | 14.0 | 16.0 | 0.00 | 0.00 | 0.00 | 67 | 1011.7 |
| 20260505024316 | 54 | 248 | 15.0 | 17.0 | 0.00 | 0.00 | 0.00 | 67 | 1011.5 |
| 20260505023813 | 54 | 243 | 16.0 | 17.0 | 0.00 | 0.00 | 0.00 | 66 | 1011.7 |
| 20260505023309 | 54 | 251 | 13.0 | 17.0 | 0.00 | 0.00 | 0.00 | 66 | 1011.6 |
| 20260505022807 | 55 | 243 | 11.0 | 14.0 | 0.00 | 0.00 | 0.00 | 65 | 1011.8 |
| 20260505022304 | 55 | 252 | 11.0 | 15.0 | 0.00 | 0.00 | 0.00 | 64 | 1011.7 |
| 20260505021801 | 55 | 214 | 15.0 | 18.0 | 0.00 | 0.00 | 0.00 | 64 | 1011.5 |
| 20260505021257 | 55 | 241 | 17.0 | 22.0 | 0.00 | 0.00 | 0.00 | 64 | 1011.5 |
| 20260505020753 | 55 | 235 | 19.0 | 24.0 | 0.00 | 0.00 | 0.00 | 64 | 1011.5 |
| 20260505020248 | 55 | 246 | 15.0 | 17.0 | 0.00 | 0.00 | 0.00 | 64 | 1011.4 |
| 20260505015746 | 55 | 232 | 17.0 | 21.0 | 0.00 | 0.00 | 0.00 | 64 | 1011.5 |
| 20260505015243 | 55 | 233 | 18.0 | 21.0 | 0.00 | 0.00 | 0.00 | 63 | 1011.3 |
| 20260505014740 | 56 | 225 | 22.0 | 29.0 | 0.00 | 0.00 | 0.00 | 63 | 1011.6 |
| 20260505014237 | 56 | 265 | 16.0 | 22.0 | 0.00 | 0.00 | 0.00 | 62 | 1011.6 |
| 20260505013734 | 56 | 258 | 20.0 | 24.0 | 0.00 | 0.00 | 0.00 | 62 | 1011.7 |
| 20260505013231 | 57 | 230 | 15.0 | 20.0 | 0.00 | 0.00 | 0.00 | 61 | 1011.7 |
| 20260505012729 | 57 | 251 | 14.0 | 16.0 | 0.00 | 0.00 | 0.00 | 61 | 1011.9 |
| 20260505012226 | 57 | 232 | 16.0 | 22.0 | 0.00 | 0.00 | 0.00 | 60 | 1011.9 |
| 20260505011722 | 57 | 245 | 14.0 | 21.0 | 0.00 | 0.00 | 0.00 | 60 | 1011.6 |
| 20260505011219 | 57 | 261 | 17.0 | 22.0 | 0.00 | 0.00 | 0.00 | 60 | 1011.8 |
| 20260505010714 | 57 | 237 | 15.0 | 17.0 | 0.00 | 0.00 | 0.00 | 59 | 1011.8 |
| 20260505010211 | 58 | 235 | 13.0 | 20.0 | 0.00 | 0.00 | 0.00 | 59 | 1011.8 |
| 20260505005708 | 57 | 219 | 16.0 | 18.0 | 0.00 | 0.00 | 0.00 | 58 | 1011.9 |
| 20260505005205 | 58 | 249 | 16.0 | 18.0 | 0.00 | 0.00 | 0.00 | 58 | 1011.7 |
| 20260505004702 | 58 | 221 | 19.0 | 24.0 | 0.00 | 0.00 | 0.00 | 56 | 1011.7 |
| 20260505004159 | 59 | 272 | 16.0 | 21.0 | 0.00 | 0.00 | 0.00 | 56 | 1011.8 |
| 20260505003656 | 59 | 239 | 16.0 | 18.0 | 0.00 | 0.00 | 0.00 | 55 | 1011.6 |
| 20260505003153 | 59 | 291 | 23.0 | 27.0 | 0.00 | 0.00 | 0.00 | 55 | 1011.7 |
| 20260505002649 | 59 | 247 | 19.0 | 21.0 | 0.00 | 0.00 | 0.00 | 55 | 1011.6 |
| 20260505002148 | 59 | 245 | 14.0 | 17.0 | 0.00 | 0.00 | 0.00 | 55 | 1011.7 |
| 20260505001644 | 59 | 216 | 25.0 | 30.0 | 0.00 | 0.00 | 0.00 | 55 | 1011.3 |
| 20260505001142 | 60 | 221 | 17.0 | 18.0 | 0.00 | 0.00 | 0.00 | 53 | 1011.4 |
| 20260505000638 | 59 | 224 | 14.0 | 22.0 | 0.00 | 0.00 | 0.00 | 53 | 1011.4 |
| 20260505000137 | 59 | 246 | 17.0 | 22.0 | 0.00 | 0.00 | 0.00 | 52 | 1011.6 |
| 20260504235632 | 59 | 266 | 24.0 | 29.0 | 0.00 | 0.00 | 0.00 | 51 | 1011.5 |
| 20260504235129 | 60 | 260 | 17.0 | 22.0 | 0.00 | 0.00 | 0.00 | 51 | 1011.4 |
| 20260504234626 | 60 | 245 | 20.0 | 24.0 | 0.00 | 0.00 | 0.00 | 51 | 1011.6 |
| 20260504234124 | 60 | 253 | 14.0 | 20.0 | 0.00 | 0.00 | 0.00 | 51 | 1011.4 |
| 20260504233619 | 60 | 249 | 13.0 | 15.0 | 0.00 | 0.00 | 0.00 | 51 | 1011.5 |
| 20260504233115 | 60 | 220 | 15.0 | 17.0 | 0.00 | 0.00 | 0.00 | 50 | 1011.6 |
| 20260504232613 | 61 | 255 | 14.0 | 16.0 | 0.00 | 0.00 | 0.00 | 48 | 1011.7 |
| 20260504232110 | 60 | 238 | 19.0 | 22.0 | 0.00 | 0.00 | 0.00 | 48 | 1011.8 |
| 20260504231607 | 60 | 257 | 17.0 | 21.0 | 0.00 | 0.00 | 0.00 | 54 | 1011.7 |
| 20260504231103 | 60 | 221 | 16.0 | 18.0 | 0.00 | 0.00 | 0.00 | 53 | 1011.9 |
| 20260504230559 | 60 | 234 | 11.0 | 15.0 | 0.00 | 0.00 | 0.00 | 54 | 1011.8 |
| 20260504230058 | 60 | 224 | 12.0 | 14.0 | 0.00 | 0.00 | 0.00 | 53 | 1011.8 |
| 20260504225555 | 60 | 241 | 12.0 | 16.0 | 0.00 | 0.00 | 0.00 | 53 | 1012.0 |
| 20260504225052 | 60 | 186 | 10.0 | 11.0 | 0.00 | 0.00 | 0.00 | 53 | 1011.8 |
| 20260504224549 | 61 | 232 | 24.0 | 30.0 | 0.00 | 0.00 | 0.00 | 52 | 1012.2 |
| 20260504224046 | 60 | 231 | 9.0 | 10.0 | 0.00 | 0.00 | 0.00 | 51 | 1012.0 |
| 20260504223543 | 61 | 248 | 17.0 | 20.0 | 0.00 | 0.00 | 0.00 | 51 | 1012.4 |
| 20260504223038 | 59 | 200 | 14.0 | 17.0 | 0.00 | 0.00 | 0.00 | 51 | 1011.9 |
| 20260504222536 | 62 | 266 | 14.0 | 17.0 | 0.00 | 0.00 | 0.00 | 48 | 1012.1 |